This is the latest recevied weather packets stored in our database for station/object KG5CK-1. If no packets are shown the sender has not sent any weather packets the latest 10 day(s).
| Time | Temp. | Humidity | Pressure | Rain* | Wind** | Luminosity | Snow |
|---|---|---|---|---|---|---|---|
| 1777520643 | 17.22° C | 85% | 1011 hPa | 0 mm | 1.79 m/s, 68° | - | - |
| 1777520583 | 17.22° C | 85% | 1011 hPa | 0 mm | 1.79 m/s, 68° | - | - |
| 1777520523 | 17.22° C | 85% | 1011 hPa | 0 mm | 1.79 m/s, 68° | - | - |
| 1777520463 | 17.22° C | 85% | 1011 hPa | 0 mm | 1.79 m/s, 68° | - | - |
| 1777520403 | 17.22° C | 85% | 1011.1 hPa | 0 mm | 1.34 m/s, 45° | - | - |
| 1777520343 | 17.22° C | 85% | 1011.1 hPa | 0 mm | 1.34 m/s, 45° | - | - |
| 1777520283 | 17.22° C | 85% | 1011.1 hPa | 0 mm | 1.34 m/s, 45° | - | - |
| 1777520222 | 17.22° C | 85% | 1011.1 hPa | 0 mm | 1.34 m/s, 45° | - | - |
| 1777520163 | 17.22° C | 85% | 1011.1 hPa | 0 mm | 1.34 m/s, 45° | - | - |
| 1777520103 | 17.22° C | 85% | 1010.8 hPa | 0 mm | 1.34 m/s, 62° | - | - |
| 1777520043 | 17.22° C | 85% | 1010.8 hPa | 0 mm | 1.34 m/s, 62° | - | - |
| 1777519983 | 17.22° C | 85% | 1010.8 hPa | 0 mm | 1.34 m/s, 62° | - | - |
| 1777519923 | 17.22° C | 85% | 1010.8 hPa | 0 mm | 1.34 m/s, 62° | - | - |
| 1777519863 | 17.22° C | 85% | 1010.8 hPa | 0 mm | 1.34 m/s, 62° | - | - |
| 1777519803 | 17.22° C | 85% | 1010.6 hPa | 0 mm | 0.89 m/s, 37° | - | - |
| 1777519743 | 17.22° C | 85% | 1010.6 hPa | 0 mm | 0.89 m/s, 37° | - | - |
| 1777519683 | 17.22° C | 85% | 1010.6 hPa | 0 mm | 0.89 m/s, 37° | - | - |
| 1777519623 | 17.22° C | 85% | 1010.6 hPa | 0 mm | 0.89 m/s, 37° | - | - |
| 1777519563 | 17.22° C | 85% | 1010.6 hPa | 0 mm | 0.89 m/s, 37° | - | - |
| 1777519503 | 17.22° C | 84% | 1011 hPa | 0 mm | 0.89 m/s, 35° | - | - |
| 1777519442 | 17.22° C | 84% | 1011 hPa | 0 mm | 0.89 m/s, 35° | - | - |
| 1777519383 | 17.22° C | 84% | 1011 hPa | 0 mm | 0.89 m/s, 35° | - | - |
| 1777519323 | 17.22° C | 84% | 1011 hPa | 0 mm | 0.89 m/s, 35° | - | - |
| 1777519263 | 17.22° C | 84% | 1011 hPa | 0 mm | 0.89 m/s, 35° | - | - |
| 1777519203 | 17.22° C | 84% | 1010.9 hPa | 0 mm | 0.89 m/s, 53° | - | - |
* Rain latest hour (hover to see other rain measurements)
** Current wind speed in m/s (hover to see current wind gust speed)